#�ϑ�����,���ϕ���,���ϕ���,�ő啗��,�ő啗����������,�ő�u�ԕ���,�ő�u�ԕ�����������
#(�N����),(m/s)   ,(16����),(m/s)   ,(16����)        ,(m/s)       ,(16����)            
2012/10/19 0:01,3.9,1,3.9,1,5.7,2
2012/10/19 0:02,4,1,4,1,8.2,14
2012/10/19 0:03,4,16,4,1,9.2,15
2012/10/19 0:04,4.2,16,4.2,16,6.8,16
2012/10/19 0:05,4.5,16,4.5,16,8.4,16
2012/10/19 0:06,4.4,16,4.5,16,6.1,1
2012/10/19 0:07,4.1,16,4.4,16,4.3,15
2012/10/19 0:08,3.6,16,4.1,16,3.5,16
2012/10/19 0:09,3.6,16,3.6,16,6.1,1
2012/10/19 0:10,3.8,16,3.8,16,11.7,2
2012/10/19 0:11,3.7,16,3.8,16,5.1,15
2012/10/19 0:12,3.7,16,3.7,16,8.1,14
2012/10/19 0:13,3.5,16,3.8,16,7.8,16
2012/10/19 0:14,3.5,16,3.5,16,6.8,15
2012/10/19 0:15,3.4,16,3.6,16,5,2
2012/10/19 0:16,3.3,16,3.3,16,4.9,16
2012/10/19 0:17,3.2,16,3.3,16,4.4,16
2012/10/19 0:18,3.3,16,3.3,16,4.1,1
2012/10/19 0:19,3.2,16,3.3,16,5.5,16
2012/10/19 0:20,2.9,16,3.2,16,4.3,16
2012/10/19 0:21,2.9,16,2.9,16,5.1,14
2012/10/19 0:22,3,16,3.1,16,8.6,16
2012/10/19 0:23,3.1,16,3.1,16,6.1,1
2012/10/19 0:24,2.8,16,3,16,2.4,12
2012/10/19 0:25,2.6,16,2.7,16,1.9,15
2012/10/19 0:26,2.4,16,2.6,16,3.5,16
2012/10/19 0:27,2.6,16,2.6,16,5.7,15
2012/10/19 0:28,2.8,16,2.8,16,6.7,2
2012/10/19 0:29,2.7,16,2.8,16,4.5,1
2012/10/19 0:30,2.7,16,2.7,16,3.3,14
2012/10/19 0:31,2.7,16,2.7,16,4.5,3
2012/10/19 0:32,2.4,1,2.7,16,3.9,2
2012/10/19 0:33,2.4,1,2.4,16,5.1,5
2012/10/19 0:34,2.7,1,2.7,16,8.2,3
2012/10/19 0:35,2.9,1,2.9,1,6.9,1
2012/10/19 0:36,3.1,1,3.1,1,4.4,16
2012/10/19 0:37,3,1,3.1,1,3.9,1
2012/10/19 0:38,3,1,3,1,6.9,1
2012/10/19 0:39,2.9,1,3,1,5,2
2012/10/19 0:40,3.1,1,3.1,1,6.7,14
2012/10/19 0:41,3.2,1,3.2,1,6.5,15
2012/10/19 0:42,3.5,1,3.5,1,10,16
2012/10/19 0:43,3.8,16,3.8,16,11,16
2012/10/19 0:44,3.8,16,3.8,16,9.8,1
2012/10/19 0:45,4,16,4,16,7.8,2
2012/10/19 0:46,4,16,4,16,3.3,13
2012/10/19 0:47,4,16,4,16,3.8,14
2012/10/19 0:48,3.7,16,4,16,2.4,1
2012/10/19 0:49,3.8,16,3.8,16,5.1,1
2012/10/19 0:50,4.2,16,4.2,16,14.1,1
2012/10/19 0:51,4,16,4.2,16,6.1,1
2012/10/19 0:52,3.7,16,4,16,5.1,16
2012/10/19 0:53,3.6,16,3.6,16,9,16
2012/10/19 0:54,3.5,16,3.6,16,8.3,15
2012/10/19 0:55,3.5,16,3.5,16,8.1,15
2012/10/19 0:56,3.7,1,3.7,16,5.8,1
2012/10/19 0:57,3.9,1,3.9,16,7,1
2012/10/19 0:58,4,1,4.1,16,6.2,15
2012/10/19 0:59,4,1,4.1,16,4.8,1
2012/10/19 1:00,3.5,16,4,16,5.2,1
2012/10/19 1:01,3.7,1,3.7,1,7.7,1
2012/10/19 1:02,4,1,4,1,8.3,2
2012/10/19 1:03,4,1,4,1,7.5,3
2012/10/19 1:04,3.9,1,4,1,6,2
2012/10/19 1:05,3.7,1,3.9,1,5.5,15
2012/10/19 1:06,3.5,1,3.7,1,4.1,15
2012/10/19 1:07,3.2,16,3.5,1,2,15
2012/10/19 1:08,2.9,16,3.2,1,0.9,1
2012/10/19 1:09,2.8,16,2.9,1,2.5,11
2012/10/19 1:10,2.7,16,2.8,1,2.2,13
2012/10/19 1:11,2.4,16,2.7,1,2.7,1
2012/10/19 1:12,2,15,2.4,1,2.9,16
2012/10/19 1:13,1.5,15,1.9,1,1,16
2012/10/19 1:14,1.4,14,1.5,1,3.3,16
2012/10/19 1:15,1.2,14,1.4,1,2,16
2012/10/19 1:16,1.1,14,1.2,1,1.8,15
2012/10/19 1:17,1.1,14,1.1,1,1.5,14
2012/10/19 1:18,1.1,14,1.1,16,0.9,14
2012/10/19 1:19,1,14,1.1,16,1.4,11
2012/10/19 1:20,1,14,1,16,2.2,11
2012/10/19 1:21,0.9,13,1,16,1.4,11
2012/10/19 1:22,0.9,13,0.9,15,1.1,7
2012/10/19 1:23,0.9,12,0.9,15,0.8,8
2012/10/19 1:24,0.9,11,0.9,14,2.2,12
2012/10/19 1:25,1,11,1,14,3.6,11
2012/10/19 1:26,1.2,11,1.2,11,4.9,13
2012/10/19 1:27,1.5,11,1.5,11,6.1,14
2012/10/19 1:28,1.6,11,1.6,11,3.5,1
2012/10/19 1:29,1.6,12,1.6,11,2.9,14
2012/10/19 1:30,1.5,12,1.6,11,1.1,1
2012/10/19 1:31,1.5,12,1.5,11,1.9,9
2012/10/19 1:32,1.6,12,1.6,11,3.8,7
2012/10/19 1:33,1.8,13,1.8,13,4.5,9
2012/10/19 1:34,1.9,13,1.9,13,4.4,16
2012/10/19 1:35,1.9,14,1.9,13,5.2,16
2012/10/19 1:36,1.6,14,1.9,13,2,15
2012/10/19 1:37,1.4,14,1.6,13,2.2,12
2012/10/19 1:38,1.4,14,1.4,13,2.1,3
2012/10/19 1:39,1.5,15,1.5,13,3.3,4
2012/10/19 1:40,1.6,15,1.6,13,2,1
2012/10/19 1:41,1.6,16,1.6,13,2.1,16
2012/10/19 1:42,1.6,16,1.6,13,2.5,2
2012/10/19 1:43,1.4,1,1.5,13,1.5,15
2012/10/19 1:44,1.3,16,1.4,14,1.6,14
2012/10/19 1:45,1.2,16,1.3,14,3,12
2012/10/19 1:46,1.5,16,1.5,14,9.8,14
2012/10/19 1:47,1.8,1,1.8,1,8.4,16
2012/10/19 1:48,2,16,2,16,6.1,16
2012/10/19 1:49,1.9,16,1.9,16,5.4,7
2012/10/19 1:50,2.1,16,2.1,16,6.8,6
2012/10/19 1:51,2.2,16,2.2,16,4.7,15
2012/10/19 1:52,2.2,15,2.2,16,3,8
2012/10/19 1:53,2.3,14,2.3,14,4.9,10
2012/10/19 1:54,2.4,15,2.4,15,2,9
2012/10/19 1:55,2.4,15,2.4,15,3.7,14
2012/10/19 1:56,2.4,15,2.4,15,6.8,14
2012/10/19 1:57,2.1,14,2.4,15,3.8,16
2012/10/19 1:58,1.9,13,2.1,15,1.3,4
2012/10/19 1:59,1.8,13,1.9,15,2.2,10
2012/10/19 2:00,1.7,13,1.8,15,1.8,12
2012/10/19 2:01,1.6,13,1.7,15,2.6,14
2012/10/19 2:02,1.6,13,1.7,15,2.4,14
2012/10/19 2:03,1.4,14,1.6,15,1.4,11
2012/10/19 2:04,1.4,14,1.5,15,1.6,11
2012/10/19 2:05,1.5,14,1.5,15,4.8,1
2012/10/19 2:06,1.4,14,1.5,15,4.9,1
2012/10/19 2:07,1.7,14,1.7,14,6.1,1
2012/10/19 2:08,1.9,15,1.9,13,5.8,16
2012/10/19 2:09,2.3,15,2.3,15,9,16
2012/10/19 2:10,2.4,16,2.4,16,4.8,16
2012/10/19 2:11,2.5,16,2.5,16,4.7,15
2012/10/19 2:12,2.7,16,2.7,16,7.1,16
2012/10/19 2:13,3,16,3,16,9.7,16
2012/10/19 2:14,3.2,16,3.2,16,5.7,15
2012/10/19 2:15,3,16,3.2,16,2.9,12
2012/10/19 2:16,3,15,3,16,2.7,15
2012/10/19 2:17,2.8,15,2.9,16,4.7,15
2012/10/19 2:18,2.8,16,2.8,16,4.4,2
2012/10/19 2:19,2.6,16,2.8,16,5.1,2
2012/10/19 2:20,2.8,16,2.8,16,6.8,5
2012/10/19 2:21,2.8,1,2.8,16,7,5
2012/10/19 2:22,2.6,1,2.7,16,3,2
2012/10/19 2:23,2.5,1,2.7,16,3.9,12
2012/10/19 2:24,2.4,1,2.5,16,3.5,12
2012/10/19 2:25,2.3,2,2.4,16,1.8,8
2012/10/19 2:26,2.4,2,2.4,15,3.6,3
2012/10/19 2:27,2.4,2,2.5,15,4.8,1
2012/10/19 2:28,2.5,2,2.5,16,5.7,15
2012/10/19 2:29,2.6,1,2.6,16,7.7,16
2012/10/19 2:30,2.4,1,2.6,16,4.9,16
2012/10/19 2:31,2.2,16,2.3,1,4.2,14
2012/10/19 2:32,2.4,16,2.4,1,5.8,15
2012/10/19 2:33,2.6,16,2.6,1,10,14
2012/10/19 2:34,3,16,3,16,10.1,14
2012/10/19 2:35,3.3,16,3.3,16,7.9,16
2012/10/19 2:36,3.5,16,3.5,16,7.8,2
2012/10/19 2:37,3.6,16,3.6,16,7,16
2012/10/19 2:38,3.6,16,3.7,16,4.5,1
2012/10/19 2:39,3.5,16,3.6,16,5.5,13
2012/10/19 2:40,3.7,16,3.7,16,8.3,16
2012/10/19 2:41,4.5,16,4.5,16,15.6,15
2012/10/19 2:42,5,16,5,16,17.2,15
2012/10/19 2:43,5,16,5.1,16,10.1,15
2012/10/19 2:44,4.8,16,5,16,8.5,15
2012/10/19 2:45,4.7,16,4.8,16,5.2,14
2012/10/19 2:46,4.6,16,4.7,16,5.7,15
2012/10/19 2:47,4.6,15,4.6,16,9.1,15
2012/10/19 2:48,4.6,15,4.6,16,9.1,13
2012/10/19 2:49,4.9,15,5,16,11.4,16
2012/10/19 2:50,5,15,5,16,8.5,15
2012/10/19 2:51,4.7,15,5,16,11.8,15
2012/10/19 2:52,4.5,15,4.7,16,9.3,15
2012/10/19 2:53,4.4,15,4.6,16,7.5,1
2012/10/19 2:54,4.2,16,4.4,15,3.9,16
2012/10/19 2:55,4,15,4.2,15,1.9,13
2012/10/19 2:56,4,15,4,15,4.9,14
2012/10/19 2:57,3.8,15,4,15,3.9,12
2012/10/19 2:58,4,15,4,15,11.7,14
2012/10/19 2:59,3.9,15,4.1,15,9,16
2012/10/19 3:00,3.9,15,4,15,7.9,15
2012/10/19 3:01,3.8,15,3.9,15,9.4,15
2012/10/19 3:02,3.6,15,3.8,15,8.5,15
2012/10/19 3:03,3.6,15,3.7,15,6.5,14
2012/10/19 3:04,3.8,15,3.8,16,8.2,16
2012/10/19 3:05,4.2,15,4.2,15,7.9,15
2012/10/19 3:06,4.4,15,4.4,15,7.1,16
2012/10/19 3:07,4.9,15,4.9,15,10,14
2012/10/19 3:08,5,15,5,15,11.4,15
2012/10/19 3:09,5.1,15,5.1,15,10.2,16
2012/10/19 3:10,5,15,5.1,15,6.8,16
2012/10/19 3:11,5.1,15,5.1,15,9.7,14
2012/10/19 3:12,5.3,15,5.3,15,10.6,16
2012/10/19 3:13,5.7,15,5.7,15,12.1,14
2012/10/19 3:14,6,15,6.1,15,11,16
2012/10/19 3:15,6,15,6.1,15,7.9,16
2012/10/19 3:16,5.9,15,6,15,5.8,15
2012/10/19 3:17,5.8,15,5.9,15,9.8,16
2012/10/19 3:18,5.6,15,5.8,15,9.9,14
2012/10/19 3:19,5.4,15,5.6,15,8.7,15
2012/10/19 3:20,5.4,15,5.4,15,7.5,16
2012/10/19 3:21,5.5,15,5.5,15,8.6,15
2012/10/19 3:22,5.4,15,5.5,15,9.3,15
2012/10/19 3:23,5.1,16,5.4,15,8.9,1
2012/10/19 3:24,5,15,5.1,15,8.6,15
2012/10/19 3:25,4.9,15,4.9,15,6.2,1
2012/10/19 3:26,5.2,15,5.2,15,12.7,16
2012/10/19 3:27,5.1,15,5.3,15,7.7,14
2012/10/19 3:28,5,15,5.1,15,6.7,16
2012/10/19 3:29,4.9,15,5,15,6.8,15
2012/10/19 3:30,5,15,5,15,9.2,16
2012/10/19 3:31,4.8,15,5,15,6.5,16
2012/10/19 3:32,4.6,16,4.8,15,4.9,16
2012/10/19 3:33,4.4,16,4.6,15,4.5,16
2012/10/19 3:34,4,16,4.3,15,4.5,15
2012/10/19 3:35,4.2,16,4.2,15,6.7,14
2012/10/19 3:36,4,16,4.1,15,8.1,16
2012/10/19 3:37,4,15,4,15,9.1,15
2012/10/19 3:38,4.2,15,4.2,15,8.5,16
2012/10/19 3:39,4.3,15,4.3,15,9.9,15
2012/10/19 3:40,4.2,16,4.4,15,6.3,15
2012/10/19 3:41,4.2,16,4.3,15,6,16
2012/10/19 3:42,4.1,16,4.2,16,4.2,16
2012/10/19 3:43,4.1,15,4.1,15,4.5,16
2012/10/19 3:44,4.1,16,4.1,15,4.7,1
2012/10/19 3:45,3.9,16,4.1,15,5.4,1
2012/10/19 3:46,3.8,16,4,15,6.5,14
2012/10/19 3:47,3.5,16,3.8,15,4.5,14
2012/10/19 3:48,3.4,15,3.5,15,6.4,12
2012/10/19 3:49,3.2,15,3.3,15,8.3,16
2012/10/19 3:50,3.4,15,3.4,15,10.9,15
2012/10/19 3:51,3.6,15,3.7,16,11,14
2012/10/19 3:52,3.6,14,3.7,16,6.8,1
2012/10/19 3:53,3.6,15,3.6,16,3.2,1
2012/10/19 3:54,3.7,14,3.7,16,5.6,14
2012/10/19 3:55,3.4,14,3.6,16,2.1,15
2012/10/19 3:56,3.2,14,3.4,16,4.4,14
2012/10/19 3:57,3.2,15,3.3,15,3.9,14
2012/10/19 3:58,3.3,15,3.3,15,8.1,15
2012/10/19 3:59,3.3,15,3.4,15,6.7,15
2012/10/19 4:00,3.2,15,3.4,15,7.1,16
2012/10/19 4:01,2.9,15,3.2,15,4.8,16
2012/10/19 4:02,3.1,15,3.1,14,7.8,15
2012/10/19 4:03,3.3,15,3.3,14,6,15
2012/10/19 4:04,3.1,15,3.2,14,3.1,12
2012/10/19 4:05,3.2,15,3.2,14,2,16
2012/10/19 4:06,3.3,15,3.3,15,5,1
2012/10/19 4:07,3.3,15,3.3,15,4.8,16
2012/10/19 4:08,3.4,15,3.5,15,10.3,16
2012/10/19 4:09,3.6,15,3.6,15,9.2,15
2012/10/19 4:10,3.5,15,3.6,15,4.9,14
2012/10/19 4:11,3.7,15,3.7,15,6.5,16
2012/10/19 4:12,3.8,15,3.8,15,7,16
2012/10/19 4:13,3.8,15,3.8,15,6.8,16
2012/10/19 4:14,4,15,4,15,6.5,14
2012/10/19 4:15,4.2,15,4.2,15,5.4,16
2012/10/19 4:16,4,15,4.2,15,2.5,1
2012/10/19 4:17,4,15,4,15,6.7,14
2012/10/19 4:18,3.6,15,4,15,4.5,2
2012/10/19 4:19,3.2,15,3.5,15,3.9,3
2012/10/19 4:20,3,16,3.2,15,3.1,3
2012/10/19 4:21,2.8,16,3,15,2.7,7
2012/10/19 4:22,2.3,1,2.7,15,1.5,10
2012/10/19 4:23,2.2,16,2.3,15,6.4,11
2012/10/19 4:24,2.3,15,2.3,15,7.5,11
2012/10/19 4:25,2.1,14,2.3,15,6,9
2012/10/19 4:26,2.4,13,2.4,15,6.1,14
2012/10/19 4:27,2.3,13,2.4,15,3.8,14
2012/10/19 4:28,2.4,13,2.4,15,3.6,14
2012/10/19 4:29,2.4,13,2.4,15,5.6,13
2012/10/19 4:30,2.5,12,2.6,16,5.5,12
2012/10/19 4:31,2.6,13,2.6,16,3.6,12
2012/10/19 4:32,2.7,13,2.7,13,3.1,14
2012/10/19 4:33,2.5,12,2.7,13,3,9
2012/10/19 4:34,2.3,12,2.5,13,3.3,10
2012/10/19 4:35,2.4,12,2.4,13,5.2,10
2012/10/19 4:36,2.6,12,2.6,13,9.5,13
2012/10/19 4:37,2.7,12,2.7,13,6.5,14
2012/10/19 4:38,2.8,12,2.8,12,5.2,15
2012/10/19 4:39,3,12,3,12,12.6,13
2012/10/19 4:40,3.3,12,3.3,12,14.7,14
2012/10/19 4:41,3.2,12,3.3,12,1.8,15
2012/10/19 4:42,3.1,12,3.1,12,2.2,9
2012/10/19 4:43,3.1,12,3.1,12,4.2,12
2012/10/19 4:44,3.4,13,3.4,13,6.1,12
2012/10/19 4:45,3.4,13,3.4,13,5.2,11
2012/10/19 4:46,3.1,13,3.4,13,3.8,15
2012/10/19 4:47,3,13,3.1,13,5,15
2012/10/19 4:48,3.1,13,3.1,13,7.6,14
2012/10/19 4:49,2.9,14,3.2,13,6.4,16
2012/10/19 4:50,2.5,13,2.8,13,3.1,12
2012/10/19 4:51,3,14,3,13,8.1,15
2012/10/19 4:52,3.3,14,3.3,13,8.1,16
2012/10/19 4:53,3.4,14,3.4,13,4.2,1
2012/10/19 4:54,3.3,15,3.4,13,4.8,14
2012/10/19 4:55,3.2,15,3.2,13,5,14
2012/10/19 4:56,3.1,15,3.2,14,2.7,14
2012/10/19 4:57,3,15,3.1,14,3.7,14
2012/10/19 4:58,2.8,15,3,14,3,15
2012/10/19 4:59,2.8,14,2.8,14,6,11
2012/10/19 5:00,2.9,14,2.9,14,5.6,12
2012/10/19 5:01,2.8,14,2.9,14,6.7,15
2012/10/19 5:02,2.8,14,2.9,14,6.1,15
2012/10/19 5:03,3,14,3,14,6.3,15
2012/10/19 5:04,3,14,3,15,5,15
2012/10/19 5:05,3.2,14,3.2,15,5,14
2012/10/19 5:06,3.4,15,3.4,15,6.7,14
2012/10/19 5:07,3.7,15,3.7,15,6,15
2012/10/19 5:08,4,14,4,14,7.7,14
2012/10/19 5:09,4,15,4.1,15,7,16
2012/10/19 5:10,4.1,15,4.2,15,6.2,16
2012/10/19 5:11,3.8,15,4.1,15,3.9,16
2012/10/19 5:12,3.5,15,3.8,15,1.9,13
2012/10/19 5:13,3.3,14,3.5,15,2.4,13
2012/10/19 5:14,3.1,14,3.2,15,4.5,11
2012/10/19 5:15,2.9,14,3.1,15,2.5,14
2012/10/19 5:16,2.8,14,2.9,15,4.4,15
2012/10/19 5:17,2.8,14,2.8,15,6.2,15
2012/10/19 5:18,2.5,14,2.8,15,5,15
2012/10/19 5:19,2.5,14,2.5,15,5.1,15
2012/10/19 5:20,2.6,14,2.6,15,9,15
2012/10/19 5:21,3,14,3,15,9.3,14
2012/10/19 5:22,3.1,14,3.1,15,9.1,14
2012/10/19 5:23,3.3,14,3.3,14,5.5,15
2012/10/19 5:24,3.3,15,3.4,14,4.4,14
2012/10/19 5:25,3.4,15,3.4,14,4.9,16
2012/10/19 5:26,3.4,15,3.4,14,4.5,12
2012/10/19 5:27,3.5,14,3.5,15,7.5,11
2012/10/19 5:28,3.4,14,3.5,15,5.7,14
2012/10/19 5:29,3.2,14,3.4,15,3,13
2012/10/19 5:30,2.8,14,3.2,15,3.3,13
2012/10/19 5:31,2.5,14,2.8,15,3.8,15
2012/10/19 5:32,2.6,14,2.6,15,5.6,15
2012/10/19 5:33,2.6,14,2.6,15,5.1,15
2012/10/19 5:34,2.8,14,2.8,15,6.9,16
2012/10/19 5:35,2.8,14,2.9,15,7,15
2012/10/19 5:36,2.8,15,2.9,15,5.6,15
2012/10/19 5:37,2.5,15,2.7,14,3.8,15
2012/10/19 5:38,2.7,15,2.7,14,7.4,14
2012/10/19 5:39,2.8,15,2.8,14,3.9,14
2012/10/19 5:40,2.8,15,2.8,14,3.6,15
2012/10/19 5:41,2.8,15,2.8,14,5.4,14
2012/10/19 5:42,2.9,15,2.9,14,5.5,14
2012/10/19 5:43,2.7,15,2.9,14,5.7,16
2012/10/19 5:44,2.4,15,2.7,14,1.4,14
2012/10/19 5:45,2.3,15,2.4,14,2.4,13
2012/10/19 5:46,2.3,15,2.3,15,5.7,14
2012/10/19 5:47,2.4,15,2.4,15,8.9,15
2012/10/19 5:48,2.4,15,2.4,15,6.5,16
2012/10/19 5:49,2.7,15,2.7,15,7.1,15
2012/10/19 5:50,2.9,15,2.9,15,6.1,16
2012/10/19 5:51,3.1,15,3.1,15,4.9,15
2012/10/19 5:52,2.8,15,3,15,4.4,14
2012/10/19 5:53,2.9,15,2.9,15,4.4,13
2012/10/19 5:54,3.1,15,3.1,15,5,14
2012/10/19 5:55,3.2,15,3.2,15,4.5,14
2012/10/19 5:56,3.4,15,3.4,15,8.3,14
2012/10/19 5:57,3.3,15,3.4,15,3.9,16
2012/10/19 5:58,3.1,15,3.3,15,3.1,16
2012/10/19 5:59,2.8,15,3.1,15,2.9,16
2012/10/19 6:00,2.5,15,2.7,15,2.2,14
2012/10/19 6:01,2.3,15,2.5,15,3.1,14
2012/10/19 6:02,2.5,15,2.5,15,5.2,14
2012/10/19 6:03,2.6,15,2.7,15,6.8,16
2012/10/19 6:04,2.6,16,2.6,15,3.9,15
2012/10/19 6:05,2.6,16,2.6,15,4.3,16
2012/10/19 6:06,2.4,16,2.6,15,3.9,16
2012/10/19 6:07,2.4,16,2.4,15,3,14
2012/10/19 6:08,2.3,16,2.3,15,3.5,15
2012/10/19 6:09,2.6,15,2.6,15,7,16
2012/10/19 6:10,2.9,15,2.9,15,6,14
2012/10/19 6:11,3,15,3,15,4.3,14
2012/10/19 6:12,2.9,15,3,15,4.5,16
2012/10/19 6:13,2.8,15,2.9,15,4.8,15
2012/10/19 6:14,2.9,15,2.9,15,5.4,15
2012/10/19 6:15,2.9,15,2.9,15,4.4,16
2012/10/19 6:16,2.8,15,2.9,15,3.5,13
2012/10/19 6:17,3,15,3,15,5.5,13
2012/10/19 6:18,3.4,15,3.4,15,7.9,12
2012/10/19 6:19,3.4,14,3.5,15,9.2,11
2012/10/19 6:20,3.3,14,3.4,15,4.9,13
2012/10/19 6:21,3.1,14,3.2,15,3.6,13
2012/10/19 6:22,3.1,14,3.2,15,4.4,11
2012/10/19 6:23,3,14,3.1,15,3,1
2012/10/19 6:24,3.1,14,3.1,15,5.4,15
2012/10/19 6:25,3.2,14,3.2,15,6.5,15
2012/10/19 6:26,3.2,14,3.2,15,4.4,16
2012/10/19 6:27,3,14,3.2,15,3,1
2012/10/19 6:28,2.9,14,2.9,15,6.9,15
2012/10/19 6:29,2.8,15,2.9,14,6.9,15
2012/10/19 6:30,2.9,15,2.9,14,4.4,15
2012/10/19 6:31,3,15,3,14,4.1,16
2012/10/19 6:32,3.1,15,3.1,14,5.4,15
2012/10/19 6:33,3.3,15,3.3,15,6,16
2012/10/19 6:34,3.3,15,3.4,15,4.8,16
2012/10/19 6:35,3.1,15,3.3,15,3,16
2012/10/19 6:36,3.1,15,3.1,15,3.8,14
2012/10/19 6:37,3.1,15,3.1,15,3,16
2012/10/19 6:38,2.8,15,3.1,15,2.7,16
2012/10/19 6:39,2.7,15,2.8,15,4.1,14
2012/10/19 6:40,2.5,15,2.7,15,3.7,15
2012/10/19 6:41,2.6,15,2.6,15,4.8,14
2012/10/19 6:42,2.5,15,2.6,15,5.2,15
2012/10/19 6:43,2.5,15,2.5,15,4.5,15
2012/10/19 6:44,2.3,15,2.4,15,3.9,15
2012/10/19 6:45,2.5,15,2.5,15,5.5,16
2012/10/19 6:46,2.6,15,2.6,15,5.7,16
2012/10/19 6:47,2.7,15,2.7,15,5.8,16
2012/10/19 6:48,2.8,15,2.9,15,4.1,16
2012/10/19 6:49,2.7,15,2.8,15,4.5,15
2012/10/19 6:50,2.9,16,2.9,15,6.2,1
2012/10/19 6:51,3,16,3.1,16,5.7,16
2012/10/19 6:52,3.1,16,3.1,16,4.9,16
2012/10/19 6:53,3.1,16,3.1,16,5.7,14
2012/10/19 6:54,3.1,16,3.2,16,5.7,15
2012/10/19 6:55,2.8,16,3.1,16,1.4,15
2012/10/19 6:56,2.6,16,2.8,16,2,15
2012/10/19 6:57,2.3,16,2.5,16,1.1,16
2012/10/19 6:58,2.1,16,2.3,16,2,16
2012/10/19 6:59,2.1,16,2.2,16,1.9,15
2012/10/19 7:00,1.8,16,2.1,16,1,16
2012/10/19 7:01,1.4,16,1.8,16,0.9,6
2012/10/19 7:02,1.1,16,1.4,16,1,9
2012/10/19 7:03,0.8,16,1.1,16,0.3,10
2012/10/19 7:04,0.7,16,0.7,16,2,9
2012/10/19 7:05,0.7,13,0.7,16,2.1,10
2012/10/19 7:06,0.8,11,0.8,16,2.5,13
2012/10/19 7:07,0.9,11,0.9,16,3.1,12
2012/10/19 7:08,1,11,1,16,3,12
2012/10/19 7:09,1,11,1,16,2.1,13
2012/10/19 7:10,1.1,11,1.1,16,5.1,15
2012/10/19 7:11,1.4,12,1.4,16,5.8,15
2012/10/19 7:12,1.7,13,1.7,13,4.9,15
2012/10/19 7:13,1.9,13,1.9,13,3.2,15
2012/10/19 7:14,1.8,14,1.9,13,2,16
2012/10/19 7:15,2,15,2,15,3.1,1
2012/10/19 7:16,2,15,2,15,3.3,16
2012/10/19 7:17,2.1,16,2.1,15,3.1,1
2012/10/19 7:18,2.1,16,2.1,15,2.7,15
2012/10/19 7:19,2.2,16,2.2,16,2.6,16
2012/10/19 7:20,2.1,16,2.2,16,1.8,16
2012/10/19 7:21,1.8,16,2.1,16,1.8,2
2012/10/19 7:22,1.6,16,1.8,16,0.8,16
2012/10/19 7:23,1.4,16,1.6,16,0.6,16
2012/10/19 7:24,1.4,16,1.4,16,2.2,15
2012/10/19 7:25,1.3,16,1.4,16,2.2,15
2012/10/19 7:26,1.2,16,1.3,16,1.3,11
2012/10/19 7:27,1,16,1.1,16,1,4
2012/10/19 7:28,0.8,16,1,16,0.6,3
2012/10/19 7:29,0.7,16,0.8,16,1.5,13
2012/10/19 7:30,0.7,16,0.7,16,2,13
2012/10/19 7:31,0.8,15,0.8,16,2.2,12
2012/10/19 7:32,0.8,16,0.8,16,1.3,3
2012/10/19 7:33,0.8,16,0.8,16,0.9,7
2012/10/19 7:34,0.7,1,0.8,16,0.8,4
2012/10/19 7:35,0.7,1,0.7,16,1.4,1
2012/10/19 7:36,0.7,1,0.7,16,2.4,16
2012/10/19 7:37,0.8,16,0.8,16,3.7,15
2012/10/19 7:38,1,16,1,16,3.7,14
2012/10/19 7:39,1.3,16,1.3,16,9,15
2012/10/19 7:40,1.5,1,1.5,1,6.5,15
2012/10/19 7:41,1.6,16,1.6,1,4.3,16
2012/10/19 7:42,1.7,16,1.7,16,3.8,15
2012/10/19 7:43,2.1,16,2.1,16,7.8,16
2012/10/19 7:44,2.6,15,2.6,15,10.5,1
2012/10/19 7:45,3.1,15,3.1,15,12.4,15
2012/10/19 7:46,3.5,15,3.5,15,9.4,16
2012/10/19 7:47,3.7,15,3.7,15,5.6,15
2012/10/19 7:48,3.9,15,3.9,15,6.3,15
2012/10/19 7:49,4.1,15,4.1,15,9.4,15
2012/10/19 7:50,4.3,15,4.3,15,7.6,14
2012/10/19 7:51,4.4,15,4.4,15,4.9,16
2012/10/19 7:52,4.6,15,4.6,15,5.6,13
2012/10/19 7:53,4.5,15,4.6,15,5.5,15
2012/10/19 7:54,4.2,15,4.5,15,5,14
2012/10/19 7:55,3.9,16,4.2,15,5.6,16
2012/10/19 7:56,3.8,15,3.9,15,6.1,16
2012/10/19 7:57,3.9,15,3.9,15,7.9,16
2012/10/19 7:58,3.7,15,3.9,15,5.4,15
2012/10/19 7:59,3.4,16,3.7,15,5.5,16
2012/10/19 8:00,3.2,16,3.3,15,6.7,16
2012/10/19 8:01,3.3,16,3.3,15,8.5,16
2012/10/19 8:02,3.4,16,3.4,15,7.2,15
2012/10/19 8:03,3.8,16,3.8,15,10,16
2012/10/19 8:04,4.2,16,4.2,15,10.1,15
2012/10/19 8:05,4.4,16,4.4,16,8.3,15
2012/10/19 8:06,4.4,16,4.4,16,7.5,1
2012/10/19 8:07,4.5,16,4.5,16,9.9,15
2012/10/19 8:08,5,16,5,16,13,15
2012/10/19 8:09,5.3,15,5.3,15,11.8,16
2012/10/19 8:10,5.6,15,5.6,15,10.3,16
2012/10/19 8:11,5.9,15,5.9,15,9.7,15
2012/10/19 8:12,6.1,15,6.1,15,10.8,15
2012/10/19 8:13,6.1,16,6.1,15,9.3,15
2012/10/19 8:14,5.9,16,6,15,9.1,14
2012/10/19 8:15,5.8,16,5.9,15,9.2,15
2012/10/19 8:16,5.9,16,5.9,15,7.2,16
2012/10/19 8:17,5.6,15,5.9,15,4.1,13
2012/10/19 8:18,5.1,15,5.5,15,7.9,15
2012/10/19 8:19,5.2,15,5.3,15,9.1,16
2012/10/19 8:20,5.3,15,5.3,15,9.7,16
2012/10/19 8:21,5.1,15,5.3,15,7.7,14
2012/10/19 8:22,4.9,15,5,15,9.7,16
2012/10/19 8:23,5.2,15,5.2,16,12.1,16
2012/10/19 8:24,5.3,15,5.4,16,12.1,16
2012/10/19 8:25,5.4,15,5.4,16,10.7,15
2012/10/19 8:26,5.6,16,5.6,16,11.3,15
2012/10/19 8:27,6.1,16,6.1,16,11,15
2012/10/19 8:28,6.4,16,6.5,16,11.5,15
2012/10/19 8:29,6.3,16,6.4,16,8.9,16
2012/10/19 8:30,6,16,6.2,16,8.5,15
2012/10/19 8:31,6.4,16,6.4,16,13.5,16
2012/10/19 8:32,6.3,16,6.4,16,8.5,16
2012/10/19 8:33,5.7,16,6.3,16,6.3,16
2012/10/19 8:34,5.6,16,5.7,16,6.7,1
2012/10/19 8:35,5.3,16,5.6,16,5.1,15
2012/10/19 8:36,4.8,16,5.2,16,8.5,12
2012/10/19 8:37,4.7,16,4.9,16,10.2,15
2012/10/19 8:38,4.4,16,4.6,16,6.7,16
2012/10/19 8:39,4.3,16,4.4,16,6.2,16
2012/10/19 8:40,4.3,16,4.3,16,8.1,15
2012/10/19 8:41,4,16,4.3,16,8.7,14
2012/10/19 8:42,4.2,16,4.2,16,12.8,15
2012/10/19 8:43,4.5,16,4.5,16,11.5,16
2012/10/19 8:44,4.5,15,4.5,16,8.5,16
2012/10/19 8:45,4.7,16,4.7,16,7.1,16
2012/10/19 8:46,4.7,16,4.8,16,4.8,13
2012/10/19 8:47,4.7,16,4.7,16,12.2,15
2012/10/19 8:48,4.9,16,4.9,16,11.4,16
2012/10/19 8:49,5,15,5.1,16,7.4,16
2012/10/19 8:50,5.1,15,5.1,16,10.7,15
2012/10/19 8:51,5.3,15,5.3,15,13,16
2012/10/19 8:52,4.9,15,5.3,15,5.8,1
2012/10/19 8:53,4.7,15,4.8,15,7.9,15
2012/10/19 8:54,4.5,15,4.7,15,4.7,15
2012/10/19 8:55,4.5,15,4.5,15,7.4,16
2012/10/19 8:56,4.8,15,4.8,15,10.6,15
2012/10/19 8:57,4.9,15,5,15,11,15
2012/10/19 8:58,5,15,5,15,10,16
2012/10/19 8:59,5,15,5,15,8.1,15
2012/10/19 9:00,5.2,15,5.3,15,9.9,16
2012/10/19 9:01,4.9,15,5.2,15,9.2,15
2012/10/19 9:02,5.1,15,5.1,15,9.4,15
2012/10/19 9:03,5.4,15,5.4,15,11.3,16
2012/10/19 9:04,5.7,15,5.7,15,7.5,15
2012/10/19 9:05,5.9,15,5.9,15,9,15
2012/10/19 9:06,5.7,15,5.9,15,5.7,15
2012/10/19 9:07,5.6,15,5.7,15,10.5,13
2012/10/19 9:08,5.4,15,5.6,15,9.4,15
2012/10/19 9:09,5.3,15,5.5,15,9.5,15
2012/10/19 9:10,5.1,15,5.3,15,5.8,15
2012/10/19 9:11,5,15,5,15,8.9,16
2012/10/19 9:12,5,15,5,15,7.1,14
2012/10/19 9:13,4.5,15,4.9,15,6,1
2012/10/19 9:14,4.4,15,4.5,15,6.7,1
2012/10/19 9:15,4.1,15,4.3,15,8.4,16
2012/10/19 9:16,4.4,15,4.4,15,10.8,15
2012/10/19 9:17,4.3,15,4.4,15,8.4,14
2012/10/19 9:18,4.8,15,4.8,15,15.2,16
2012/10/19 9:19,4.8,15,4.8,15,10,14
2012/10/19 9:20,4.8,15,4.8,15,7.6,16
2012/10/19 9:21,5.1,15,5.1,15,10.9,15
2012/10/19 9:22,4.8,15,5.1,15,5.4,1
2012/10/19 9:23,4.8,15,4.9,15,5.8,15
2012/10/19 9:24,5.1,15,5.1,15,11.3,1
2012/10/19 9:25,5.2,15,5.2,15,9,15
2012/10/19 9:26,5,15,5.1,15,10.1,15
2012/10/19 9:27,4.7,15,5,15,8.1,12
2012/10/19 9:28,4.5,15,4.7,15,9.9,16
2012/10/19 9:29,4.5,15,4.5,15,13.2,14
2012/10/19 9:30,4.8,15,4.8,15,13.9,16
2012/10/19 9:31,4.6,15,4.8,15,12.6,15
2012/10/19 9:32,4.9,15,4.9,15,12.7,14
2012/10/19 9:33,5,15,5,15,12.5,15
2012/10/19 9:34,5.1,15,5.2,15,11.3,15
2012/10/19 9:35,5.3,15,5.3,15,10.8,16
2012/10/19 9:36,5.6,15,5.7,15,12.4,15
2012/10/19 9:37,6,15,6,15,10.8,16
2012/10/19 9:38,6,15,6,15,9.2,15
2012/10/19 9:39,5.7,15,6,15,5.2,16
2012/10/19 9:40,5,15,5.6,15,2.1,14
2012/10/19 9:41,4.8,15,5,15,6.7,16
2012/10/19 9:42,4.7,15,4.8,15,6.3,16
2012/10/19 9:43,4.9,15,4.9,15,12.5,15
2012/10/19 9:44,5.1,16,5.1,15,12.3,16
2012/10/19 9:45,4.9,16,5.1,15,11.8,16
2012/10/19 9:46,4.9,16,5,15,11.4,15
2012/10/19 9:47,4.8,16,4.9,15,8.3,15
2012/10/19 9:48,4.7,15,4.7,15,8.1,14
2012/10/19 9:49,4.8,15,4.8,15,6.8,16
2012/10/19 9:50,5,15,5,15,4.8,16
2012/10/19 9:51,5,15,5,15,6.3,13
2012/10/19 9:52,5.1,15,5.1,15,9.4,15
2012/10/19 9:53,4.8,15,5.1,15,7,1
2012/10/19 9:54,4.5,15,4.7,16,8.6,16
2012/10/19 9:55,4.5,15,4.6,15,9.8,16
2012/10/19 9:56,4.4,15,4.5,15,12.3,15
2012/10/19 9:57,4.6,15,4.6,15,12.3,15
2012/10/19 9:58,4.8,15,4.8,15,10.3,16
2012/10/19 9:59,4.9,15,4.9,15,9.3,16
2012/10/19 10:00,5.1,15,5.1,15,7.8,15
2012/10/19 10:01,5.2,15,5.2,15,9.3,15
2012/10/19 10:02,5.4,15,5.4,15,10.9,15
2012/10/19 10:03,5.6,15,5.6,15,10.5,15
2012/10/19 10:04,5.4,15,5.6,15,7.1,15
2012/10/19 10:05,5.3,15,5.4,15,6.4,16
2012/10/19 10:06,5.2,15,5.3,15,10.2,16
2012/10/19 10:07,4.9,15,5.1,15,7.2,1
2012/10/19 10:08,4.9,15,4.9,15,9.9,15
2012/10/19 10:09,4.9,15,4.9,15,10.5,15
2012/10/19 10:10,4.9,15,4.9,15,7.5,14
2012/10/19 10:11,5.2,15,5.2,15,10.2,16
2012/10/19 10:12,5.2,15,5.2,15,11.4,15
2012/10/19 10:13,5.2,16,5.2,15,10.7,2
2012/10/19 10:14,5.3,16,5.3,15,11.5,1
2012/10/19 10:15,5.3,16,5.4,16,9,2
2012/10/19 10:16,5.1,16,5.3,16,6,1
2012/10/19 10:17,5,16,5,16,7.4,2
2012/10/19 10:18,4.7,16,5,16,4.9,15
2012/10/19 10:19,4.5,16,4.7,16,5.2,16
2012/10/19 10:20,4.3,16,4.5,16,2.7,15
2012/10/19 10:21,4,16,4.2,16,8.6,14
2012/10/19 10:22,4,16,4,16,9,16
2012/10/19 10:23,4,16,4,16,9,15
2012/10/19 10:24,3.9,16,4,16,8.1,16
2012/10/19 10:25,3.9,16,3.9,16,7.6,16
2012/10/19 10:26,3.9,16,3.9,16,6,14
2012/10/19 10:27,4.1,15,4.1,16,10.1,16
2012/10/19 10:28,4.3,15,4.3,16,9,16
2012/10/19 10:29,4.5,15,4.5,16,8.2,16
2012/10/19 10:30,4.6,15,4.6,15,4.7,11
2012/10/19 10:31,4.5,15,4.7,15,5.5,15
2012/10/19 10:32,4.3,15,4.5,15,5.2,15
2012/10/19 10:33,3.9,15,4.3,15,3.6,15
2012/10/19 10:34,3.7,15,3.8,15,5.1,16
2012/10/19 10:35,3.2,15,3.6,15,2,5
2012/10/19 10:36,3.1,16,3.2,15,3,3
2012/10/19 10:37,2.7,16,3.1,15,2.5,4
2012/10/19 10:38,2.3,16,2.7,15,2.2,6
2012/10/19 10:39,1.9,1,2.2,15,2,2
2012/10/19 10:40,1.8,2,1.9,15,3.5,14
2012/10/19 10:41,1.7,2,1.8,15,3.7,2
2012/10/19 10:42,1.8,2,1.8,15,6.3,2